Theta_e
342 341 342 342 341 338 337 337 337 336 337 338 338 335 333 334 333 329 327 328 325 325 329 330 327 324 326 330 330 330 328 327 329 328 326 323 321 322 321 322 323 325 327 327 327 328 330 330 330 329 329 330 329 328 328 326 325 326 326 325 325 326 329 330 330 329 330 330 329 330 330 330 329 327 325 326 326 325 326 326 327 327 327 327 328
341 341 342 341 340 339 338 338 338 338 338 337 337 335 332 331 331 328 327 330 328 327 331 330 327 328 331 332 329 328 329 328 327 324 317 312 314 319 319 320 321 321 324 326 327 328 328 328 329 329 330 331 331 329 328 326 326 327 326 326 325 326 328 330 330 329 329 329 329 329 329 329 329 328 327 327 327 327 327 326 326 327 327 327 326
341 341 341 341 341 339 338 339 339 340 338 336 336 335 332 329 329 330 328 329 328 328 332 329 329 334 332 331 330 330 330 328 326 323 318 312 312 318 319 319 321 322 323 324 325 328 327 328 328 328 329 330 329 328 327 325 324 325 326 325 325 327 329 330 329 328 328 329 328 328 329 328 328 328 327 328 328 328 328 327 327 327 328 327 326
340 341 341 341 341 340 340 341 340 339 337 335 336 336 334 329 329 332 330 328 326 328 332 329 330 334 331 331 331 327 325 323 324 325 323 317 316 320 319 317 322 324 323 323 323 323 324 328 330 328 328 328 327 328 327 326 325 326 326 326 327 329 330 330 329 328 328 329 328 327 327 328 328 327 327 327 328 328 328 328 327 327 327 327 327
340 340 341 341 341 341 341 342 339 338 338 336 335 336 335 331 330 332 328 325 323 326 332 330 328 329 327 328 326 322 323 325 326 325 323 321 320 320 318 319 323 323 322 324 324 319 316 320 326 327 328 327 328 328 327 328 328 327 327 327 329 330 330 331 331 328 327 327 327 327 326 326 327 327 326 327 327 326 327 326 326 326 326 326 326
339 340 340 341 341 340 342 342 340 339 338 335 332 334 335 334 332 328 324 324 322 327 333 330 326 324 323 325 326 326 329 330 327 325 324 322 320 320 320 321 322 320 322 324 320 315 314 313 316 323 327 325 326 328 328 329 328 328 327 328 329 328 328 330 331 329 327 326 326 326 327 326 327 327 327 327 326 326 325 324 324 324 324 324 324
337 338 339 341 341 340 341 342 340 339 339 335 333 335 335 335 333 328 325 324 323 330 333 328 324 325 326 328 329 330 330 329 327 326 325 320 316 317 315 316 318 316 318 320 317 314 316 317 316 320 325 323 322 324 327 329 329 329 329 328 329 328 329 329 330 329 328 328 327 325 326 326 326 327 327 326 325 324 323 322 323 322 322 322 321
335 335 337 339 341 341 340 340 340 340 339 337 336 337 336 336 334 329 326 323 326 332 331 328 328 329 331 330 329 330 327 326 326 324 321 315 316 319 316 318 322 320 319 320 321 320 318 319 318 319 324 324 323 323 325 327 327 328 327 326 325 327 329 329 328 329 328 328 328 327 325 325 326 326 326 325 325 324 323 322 322 321 320 320 320
334 334 336 338 340 341 340 340 340 340 340 337 336 337 336 335 331 327 326 326 331 332 329 330 331 330 331 330 328 328 325 325 325 322 318 314 317 322 322 322 319 318 320 320 322 324 322 322 320 320 323 324 324 324 326 327 325 324 323 322 323 325 327 327 327 329 329 328 328 328 327 326 326 327 326 324 324 323 322 322 321 320 319 319 318
334 334 336 337 339 341 340 340 340 339 338 336 335 334 332 332 332 330 328 328 332 333 330 331 331 330 332 330 328 327 326 326 324 320 318 317 318 321 323 324 319 315 318 320 323 324 322 323 322 321 322 322 323 324 325 326 324 323 321 320 323 325 325 326 326 327 327 327 328 328 327 327 326 327 326 324 323 323 322 322 322 321 320 319 317
335 334 335 337 337 338 340 339 339 338 335 331 329 330 328 327 330 331 326 326 330 333 332 331 329 331 331 329 328 327 325 325 323 321 321 320 321 322 323 324 324 320 319 319 322 321 319 321 321 322 322 322 322 323 323 323 323 323 321 319 321 323 325 325 324 325 325 325 327 328 327 326 326 326 326 325 324 323 323 322 322 321 320 318 316
336 335 335 338 336 336 338 338 337 335 330 327 327 329 330 328 329 328 323 325 327 328 330 331 330 331 330 328 328 327 325 323 322 323 323 322 322 323 323 322 322 321 321 321 321 320 320 320 322 322 323 322 322 322 322 322 322 322 322 322 321 322 323 324 324 325 326 326 326 327 326 326 326 325 325 325 324 324 322 322 320 320 318 316 314
334 333 333 336 336 336 337 338 337 334 329 331 332 332 331 329 329 328 325 325 324 322 324 327 329 330 329 328 328 328 326 324 322 322 323 322 322 322 321 321 321 321 323 322 319 318 320 321 322 323 322 321 320 321 321 322 322 321 322 323 322 322 323 323 324 324 326 327 326 325 325 325 325 325 325 325 324 323 322 320 319 317 316 315 314
332 332 333 335 334 335 337 338 336 335 334 335 333 331 330 327 326 326 325 325 325 324 321 320 326 329 327 326 328 328 327 325 323 323 322 321 321 321 321 321 321 322 323 322 318 318 320 322 322 322 323 321 319 317 317 320 322 321 322 323 323 324 324 323 323 324 325 325 324 323 324 323 322 322 323 323 322 321 320 318 318 317 315 315 315
331 333 335 336 335 333 336 338 336 335 335 334 332 330 329 327 325 325 324 325 324 323 322 320 324 327 324 324 327 328 327 326 323 322 323 322 321 321 321 321 321 322 322 317 313 314 318 321 322 321 320 318 315 313 313 317 321 321 320 321 321 322 322 323 323 323 323 322 321 320 319 319 318 317 317 318 319 319 318 317 317 315 315 316 315
332 335 336 336 336 333 334 336 335 334 333 332 330 329 327 326 325 324 323 323 323 322 325 325 325 326 326 326 328 328 327 325 323 321 321 320 320 320 320 320 321 321 317 310 307 309 313 316 317 314 312 310 310 314 316 318 320 319 317 316 317 317 318 320 320 319 319 318 317 316 315 314 314 313 314 314 315 316 316 315 316 315 315 315 314
332 335 335 336 335 334 335 336 335 334 332 330 329 328 327 326 325 324 323 322 322 323 325 327 327 326 325 326 329 328 326 325 322 319 316 315 317 319 317 317 320 318 312 306 306 307 308 310 308 306 306 305 309 315 318 318 319 318 316 314 313 313 313 314 315 314 313 313 313 314 314 314 314 314 314 314 314 314 314 314 315 315 315 315 315
332 333 334 335 334 334 335 334 334 333 331 328 327 326 325 325 324 322 322 321 322 322 323 325 326 326 325 325 328 327 324 323 320 317 316 316 316 314 310 313 317 314 308 306 306 306 306 307 306 305 306 305 308 313 316 316 317 315 312 310 308 308 308 310 310 310 311 312 314 315 316 315 314 314 313 314 314 314 314 315 315 315 316 315 316
332 332 332 333 333 333 333 332 333 332 329 326 325 325 324 324 322 320 320 321 320 320 321 323 325 326 325 324 326 326 322 320 319 317 317 317 315 309 307 310 313 311 309 307 308 308 308 308 307 306 306 306 306 309 311 313 313 310 308 307 306 306 307 307 306 307 308 311 313 315 315 313 312 312 313 315 316 315 315 315 315 316 316 316 316
329 330 330 330 331 331 330 330 331 330 329 325 324 325 324 324 323 322 321 320 318 317 318 321 325 326 324 323 325 326 322 319 318 318 318 317 313 308 306 308 311 312 312 311 312 313 312 311 311 309 308 307 306 306 308 310 310 309 309 308 306 307 307 307 308 309 310 311 313 314 314 313 313 314 315 316 316 316 316 316 316 316 316 317 317
328 329 329 329 329 329 328 329 329 329 329 327 325 326 326 324 324 324 324 321 319 317 317 321 326 327 326 325 325 325 325 321 319 319 320 319 313 308 306 308 313 315 314 313 314 314 314 314 313 312 311 309 308 306 306 309 311 311 311 309 309 310 311 311 312 313 313 314 315 314 313 314 316 316 315 315 315 315 316 316 316 316 316 316 316
327 327 327 328 328 328 327 327 326 324 323 322 322 323 323 322 321 325 326 324 322 322 322 324 326 327 329 328 326 325 326 323 320 320 322 320 314 309 307 310 316 317 314 315 315 313 314 315 314 314 313 312 310 308 309 311 311 310 309 310 313 313 313 313 314 315 315 315 315 315 314 314 315 315 315 315 315 315 316 316 316 316 315 316 316
326 326 326 327 327 327 327 326 324 321 319 319 320 322 323 318 317 320 320 320 322 323 323 325 327 328 330 329 327 326 325 324 322 322 323 321 314 310 307 309 316 318 316 315 315 314 314 314 314 315 314 313 312 311 311 311 308 307 308 312 315 314 312 313 314 314 314 314 314 314 313 311 312 314 315 314 314 315 316 316 316 315 315 315 315
325 325 325 325 325 326 326 326 326 324 323 324 325 325 324 320 316 317 317 320 324 324 323 326 328 328 329 329 329 327 326 325 325 324 323 320 317 313 309 309 314 317 318 317 315 314 314 314 314 315 315 315 314 312 312 312 310 309 309 310 313 313 312 313 314 313 313 313 313 314 312 310 311 313 314 314 314 314 316 316 316 315 315 315 314
324 324 324 324 325 325 325 325 326 326 326 326 326 325 325 324 323 323 325 326 326 326 326 328 328 328 328 328 329 328 327 326 325 324 323 322 320 317 313 313 314 315 317 319 316 314 315 314 313 314 314 315 315 313 314 314 314 313 312 311 312 312 311 314 315 314 314 314 314 315 313 311 312 313 313 313 314 314 315 316 316 315 315 315 315
324 324 324 324 324 324 324 324 324 325 325 326 326 325 326 326 326 326 327 327 327 326 327 327 327 327 327 328 328 327 327 326 324 324 324 324 323 321 318 317 317 316 315 317 316 316 316 315 314 314 313 314 314 313 314 315 314 314 314 314 314 312 312 314 315 314 314 314 314 316 316 313 314 315 315 315 315 314 315 316 316 315 315 315 315
323 324 324 324 323 323 323 323 322 323 324 324 325 325 326 326 326 326 326 326 326 326 326 326 327 327 327 327 327 327 327 326 325 325 325 325 324 323 321 319 319 319 317 315 315 316 317 316 315 315 314 314 313 313 314 314 313 314 314 313 314 313 314 315 315 315 315 315 314 316 317 315 314 316 316 316 315 315 316 316 315 315 315 315 316
322 322 322 322 322 322 322 321 321 321 322 323 324 324 324 325 325 325 326 326 326 326 326 326 327 327 327 328 328 328 328 327 327 326 326 325 324 323 322 321 320 320 320 318 316 317 318 317 317 316 316 315 315 314 315 314 314 315 313 311 311 312 314 316 315 316 318 317 316 316 317 316 316 316 316 316 316 316 316 315 315 315 315 314 315
320 320 320 320 320 320 320 320 320 320 320 320 321 321 322 323 323 323 323 324 324 325 324 325 326 327 327 327 327 327 327 327 327 326 326 325 324 323 323 322 321 320 320 320 318 318 318 318 318 317 317 317 317 317 316 315 316 316 313 311 310 311 315 317 317 318 319 319 319 318 318 318 318 316 316 316 317 316 316 315 316 315 315 314 315
317 317 317 317 317 317 318 318 317 317 317 318 318 319 319 320 320 321 321 322 323 323 323 324 325 325 325 326 325 325 325 326 326 326 325 324 324 323 323 322 322 321 320 320 320 320 319 319 318 318 319 319 319 319 318 315 314 314 312 311 312 313 316 319 320 320 320 319 320 320 320 319 318 317 317 317 316 316 316 316 316 315 315 315 315
314 314 313 314 314 314 315 315 315 315 315 315 315 315 316 316 317 318 319 321 322 322 322 322 323 323 323 324 323 323 324 325 325 325 325 324 323 323 323 323 323 322 321 320 321 321 321 320 320 320 321 321 320 319 317 314 313 313 312 312 314 315 316 319 320 320 320 320 319 319 319 319 318 318 317 318 317 316 315 315 315 315 316 316 315
310 310 310 310 310 310 310 311 311 312 313 313 314 314 314 314 314 315 315 317 318 319 320 321 321 322 322 322 322 322 323 324 325 325 324 324 323 323 323 323 323 323 322 320 321 322 322 322 322 321 322 322 320 318 317 316 316 316 316 315 316 317 317 318 318 318 319 320 320 318 317 317 316 316 317 318 318 316 316 316 316 316 317 316 316
308 308 307 307 308 308 308 307 307 308 308 309 310 312 312 313 314 314 314 314 315 315 316 317 318 318 319 320 320 321 322 323 324 324 324 324 324 323 323 323 322 322 321 321 322 321 321 322 323 322 322 323 321 319 317 317 317 317 317 317 317 318 318 318 318 318 318 319 319 317 316 315 315 315 317 318 318 317 317 316 317 317 317 317 317
306 306 305 305 305 305 305 305 304 305 306 306 307 308 309 311 312 312 314 314 314 315 315 315 315 315 315 316 317 318 319 321 321 321 322 323 323 323 323 322 322 321 321 321 321 320 320 321 321 322 322 321 321 320 319 318 318 317 317 317 317 318 318 317 317 317 316 316 316 315 315 315 314 314 316 318 317 316 317 317 317 318 317 317 317
305 304 303 303 302 302 302 302 302 302 304 305 306 307 307 308 309 310 311 312 313 314 314 314 314 314 313 314 314 315 316 317 318 319 320 320 321 321 321 321 322 322 322 321 320 320 321 321 321 321 321 320 319 319 318 319 319 318 317 316 316 316 317 316 316 315 315 315 314 314 314 314 314 314 315 316 315 313 314 315 316 316 317 316 315
302 302 301 301 302 302 301 301 301 301 301 302 304 304 305 306 306 307 308 309 311 312 312 312 313 313 313 313 313 313 313 314 315 317 318 318 319 319 319 319 320 320 321 321 320 319 319 320 321 321 320 319 318 316 317 319 319 318 318 317 316 316 316 315 315 315 315 314 313 313 313 314 315 315 313 312 311 310 311 313 315 315 316 315 315
300 299 299 300 300 301 300 300 300 300 300 300 300 301 303 304 305 305 306 307 308 309 309 309 310 311 311 311 312 312 312 313 313 314 315 316 317 318 318 319 320 320 320 320 320 319 319 320 320 320 319 319 318 316 317 319 319 319 318 316 315 316 316 315 315 315 314 314 314 311 312 315 316 313 309 308 309 310 312 313 314 314 314 314 314
299 299 300 299 299 299 300 299 299 299 298 298 299 300 301 302 303 304 304 305 307 307 307 307 307 308 308 309 310 311 311 312 312 313 313 314 315 316 317 318 319 320 320 320 320 320 320 320 320 320 319 317 317 318 319 319 319 318 317 316 315 316 317 316 316 314 313 313 311 307 309 313 312 309 307 308 310 313 313 313 313 312 311 311 310
300 299 300 300 299 299 300 299 299 298 297 297 297 299 300 301 302 302 303 303 305 306 305 304 304 305 306 307 308 309 310 311 311 312 312 313 314 315 315 316 317 317 318 318 319 320 320 319 318 318 318 317 317 318 318 318 318 317 316 315 316 317 317 315 313 312 311 310 307 307 309 310 308 306 307 308 309 311 311 311 311 310 309 309 308
300 298 298 299 299 300 300 300 299 298 297 296 297 297 298 298 299 300 301 302 303 303 302 302 302 302 303 304 306 307 308 309 310 311 311 312 312 313 314 315 316 316 316 316 317 319 319 319 318 317 317 318 318 317 317 317 317 316 316 316 316 316 315 312 311 311 310 309 308 310 311 309 306 306 307 307 307 307 309 311 310 309 308 308 308
299 297 297 298 299 299 300 300 299 298 297 296 296 296 296 297 297 298 299 300 300 300 300 299 299 299 300 303 304 305 306 307 308 309 310 310 311 311 312 314 315 315 314 313 315 317 318 319 319 317 316 318 318 317 317 317 316 316 316 315 315 314 312 311 311 311 311 309 309 309 308 306 305 306 306 306 306 306 307 308 308 307 307 307 307
299 298 298 297 298 299 299 299 299 298 297 297 296 296 296 296 297 298 298 298 297 298 298 297 298 299 300 301 300 300 301 302 303 305 307 309 310 311 311 312 313 314 314 312 313 315 316 318 319 316 315 317 317 316 316 316 315 315 315 314 314 313 311 311 311 311 310 309 307 306 305 305 305 305 305 305 306 306 306 306 306 306 307 306 307
299 299 298 297 298 299 299 298 299 298 297 297 296 297 297 297 297 298 297 297 297 297 296 297 298 299 299 298 298 298 298 299 300 302 304 306 308 310 310 311 312 314 314 312 312 314 315 317 317 315 314 315 315 315 315 315 315 315 315 313 312 312 311 311 310 310 310 308 305 304 305 305 305 305 305 305 306 306 306 306 306 306 306 305 305
299 299 298 296 297 299 298 299 299 299 298 298 298 298 298 298 299 299 298 298 298 298 297 297 297 298 298 299 299 299 299 300 301 302 303 304 306 308 309 310 311 312 313 312 312 313 315 315 315 315 315 314 314 314 315 315 315 315 314 312 311 311 311 310 310 310 309 307 305 305 305 305 305 305 305 305 305 306 305 305 304 304 303 303 302
299 299 298 297 298 299 299 300 300 300 299 299 299 299 300 300 300 299 299 299 299 299 299 298 298 298 298 299 300 300 301 301 302 302 303 303 304 306 308 309 310 311 312 312 312 312 313 314 313 313 314 313 313 314 315 314 314 314 312 310 310 310 310 309 310 310 308 306 306 306 305 305 305 305 305 305 304 304 304 303 303 302 301 301 300
299 299 298 297 298 299 299 300 300 300 300 300 300 300 300 300 300 299 299 299 299 299 299 299 299 299 299 299 299 299 300 301 302 302 302 302 302 303 305 307 308 310 310 311 311 311 311 312 312 312 312 312 312 312 313 313 312 311 310 309 309 309 309 309 310 309 307 306 307 306 305 305 305 304 304 304 303 303 303 302 301 300 300 300 299
299 299 298 298 299 299 299 299 300 300 300 300 300 300 299 299 299 299 299 299 299 299 299 299 299 299 299 299 299 299 299 300 301 301 302 302 302 302 303 304 306 308 309 310 310 310 310 310 311 311 311 311 311 311 310 310 310 310 310 310 310 310 310 310 309 308 307 307 307 307 306 305 304 304 303 303 303 303 301 300 299 299 299 299 298
298 298 298 298 298 299 299 299 300 300 299 299 299 299 299 299 299 299 299 299 298 298 298 298 298 298 298 298 299 299 299 299 299 300 301 302 302 302 302 303 304 306 307 308 309 309 310 310 310 310 309 309 310 309 306 305 307 308 308 309 309 310 310 310 309 308 308 308 308 307 305 304 304 303 303 302 301 301 300 299 299 299 298 298 297
298 298 298 298 298 299 299 299 299 299 299 299 299 299 299 299 299 299 298 298 298 298 298 297 297 298 298 298 298 298 299 299 299 300 300 301 302 302 302 303 303 304 305 307 309 309 310 310 309 308 308 308 309 308 306 303 303 304 304 305 306 308 310 310 309 309 308 308 308 306 304 303 303 302 301 300 300 299 298 298 298 298 298 298 297
297 297 297 298 298 298 298 298 299 299 299 299 299 299 299 299 299 298 298 298 298 297 297 297 297 297 297 297 297 298 298 298 299 299 300 300 301 301 301 301 302 303 304 306 308 308 309 309 308 307 307 308 308 307 306 303 302 304 304 304 305 307 308 308 308 308 308 308 307 304 303 302 302 301 300 299 299 299 298 298 298 297 297 297 296
297 297 298 298 298 298 298 298 298 299 298 299 299 299 298 298 298 298 297 297 297 297 296 297 297 297 297 297 297 297 297 297 298 298 299 300 300 301 301 301 301 301 303 305 307 307 308 308 308 307 307 307 307 307 305 304 304 305 305 305 305 306 305 304 304 306 307 306 305 303 302 301 300 300 299 299 299 298 298 297 297 296 296 296 295
Wind_Speed
13 15 16 15 14 15 15 15 15 16 16 16 15 16 18 16 15 18 19 17 15 16 14 12 11 10 10 9 9 9 9 9 9 7 6 5 5 4 4 4 3 1 1 2 2 2 4 4 4 5 6 8 8 8 9 9 10 11 10 10 11 10 8 7 8 8 8 7 6 4 3 2 2 4 5 3 2 4 5 5 3 2 2 3 2
14 15 16 16 16 16 16 14 14 16 16 17 17 17 18 17 17 19 20 18 17 16 14 13 12 11 11 11 10 10 10 9 8 7 6 5 6 5 5 5 3 2 2 2 2 2 2 1 3 4 5 7 7 7 8 8 9 10 10 10 10 9 8 8 8 8 8 7 7 7 5 3 3 6 4 2 3 3 3 2 2 3 1 0 1
16 16 17 18 18 18 16 14 15 16 17 19 18 17 18 18 18 19 20 18 18 16 14 15 14 11 11 12 11 10 10 10 9 9 8 7 7 7 6 5 4 3 3 2 1 1 2 2 0 2 4 5 6 7 7 8 9 9 10 10 9 8 7 8 8 8 8 7 8 8 8 6 4 5 6 4 3 4 4 2 2 5 3 1 4
18 18 19 19 19 19 17 15 16 17 19 21 20 19 19 19 17 18 19 18 19 17 14 15 16 15 14 14 12 11 12 12 11 11 9 8 8 7 7 6 5 4 2 2 1 1 1 1 1 0 1 2 3 4 5 7 8 8 9 9 8 7 6 6 6 8 9 7 7 7 8 8 5 6 9 6 4 5 6 4 3 6 5 3 5
19 19 20 20 21 19 16 16 18 20 21 22 22 20 20 20 19 19 21 20 20 18 15 15 16 16 16 16 14 13 12 12 11 11 10 9 8 7 7 6 5 3 3 2 1 2 2 1 1 1 1 1 1 1 2 4 5 6 7 7 7 7 6 5 5 8 10 8 7 7 7 8 8 9 10 7 6 6 5 5 5 6 5 5 7
18 19 20 21 21 20 18 17 19 21 22 22 22 21 20 21 21 20 21 21 21 19 17 17 16 15 15 15 14 12 12 11 10 10 9 8 8 7 7 6 5 4 4 2 0 0 1 1 1 1 1 1 2 1 1 3 3 3 4 4 5 7 6 5 4 7 10 10 9 8 7 6 10 13 10 8 8 7 5 6 7 6 6 7 8
17 18 20 20 21 23 21 19 21 22 21 22 23 22 20 21 21 20 20 21 20 19 17 17 17 15 14 13 12 12 11 11 10 10 9 8 9 8 7 7 5 4 3 2 1 1 2 2 2 2 1 1 0 1 4 4 3 3 4 4 4 5 5 5 5 6 8 10 10 10 9 6 9 14 12 11 11 10 9 9 8 8 8 8 7
17 18 20 21 21 24 23 21 22 21 19 19 20 21 19 18 20 19 19 20 19 19 18 16 17 15 14 12 11 11 11 11 11 10 9 8 9 8 6 6 5 3 2 2 2 1 1 2 2 3 3 2 1 1 3 4 4 5 5 5 5 5 5 5 6 5 5 7 8 9 10 8 9 11 10 11 14 13 10 9 8 8 8 9 9
17 19 20 21 21 23 23 21 19 16 16 16 14 16 15 13 18 19 17 17 17 18 16 14 15 14 13 12 12 11 11 11 11 9 9 9 9 8 6 5 4 4 3 2 2 2 2 2 1 2 3 4 2 1 2 2 3 4 5 4 4 5 5 6 6 6 6 7 5 6 8 8 9 9 8 11 14 14 12 9 8 7 8 9 9
17 16 16 18 19 20 19 17 15 12 12 12 8 9 10 8 12 16 15 13 14 15 14 13 14 13 12 11 11 12 11 11 10 9 9 8 8 8 7 5 3 3 3 3 2 1 2 2 1 2 2 4 3 2 3 2 2 1 3 3 3 4 5 6 7 6 7 6 4 4 6 7 8 8 9 11 13 12 11 11 10 8 9 9 9
16 15 14 15 16 17 16 15 14 11 9 9 7 7 10 8 9 13 13 11 9 11 12 12 12 12 11 11 11 11 11 11 10 10 9 8 7 7 6 5 4 3 3 3 3 1 2 3 3 3 3 4 4 4 4 2 1 1 1 2 2 2 3 5 6 6 4 5 4 4 6 6 7 7 8 10 11 12 12 11 10 9 10 10 10
14 14 14 14 14 15 16 15 14 13 11 12 12 10 11 11 12 13 14 11 8 9 9 10 10 10 10 11 11 10 10 10 10 10 9 8 7 6 5 5 4 4 3 3 3 2 2 3 3 4 4 4 5 5 5 4 2 2 1 0 1 1 2 2 4 4 4 3 3 3 4 3 1 3 5 6 7 11 12 10 10 10 10 10 10
14 13 13 13 14 13 14 15 15 15 15 14 14 13 13 13 13 14 15 12 9 10 10 10 9 8 10 10 9 9 9 9 10 10 9 7 7 6 5 5 4 5 5 3 3 3 4 4 3 3 3 3 4 5 5 6 5 3 3 2 1 1 2 2 2 2 4 3 1 3 5 5 4 2 5 5 5 9 9 9 10 9 10 10 9
14 14 12 10 13 13 13 15 15 15 17 17 16 15 13 13 12 13 15 13 10 10 12 11 8 7 8 9 9 9 9 9 9 9 9 7 6 6 5 5 5 5 5 4 4 4 5 5 4 4 4 3 4 5 6 8 8 5 5 5 4 3 3 3 3 4 6 5 5 7 6 6 5 4 6 6 5 7 7 8 9 9 8 8 9
13 13 10 8 12 16 15 14 13 14 19 20 17 15 13 13 11 9 13 14 10 10 10 9 8 7 8 9 10 10 10 10 9 9 8 7 6 6 5 5 6 6 6 6 6 6 7 7 5 5 4 3 4 5 7 9 9 7 6 7 7 6 6 6 5 6 7 7 7 8 6 6 7 6 6 5 5 6 6 6 7 7 7 7 7
12 10 9 9 14 17 15 14 14 15 18 19 17 15 14 13 9 8 13 15 13 13 10 7 7 7 8 10 11 10 11 11 10 10 9 7 6 7 7 7 7 7 7 7 6 7 8 7 6 6 6 5 6 7 8 9 8 7 7 8 8 7 7 7 7 7 7 8 8 8 6 6 7 6 6 6 6 6 6 6 6 6 7 7 6
11 11 12 11 13 14 13 14 14 14 16 18 16 13 12 10 8 8 14 16 15 14 11 8 7 6 8 11 11 11 11 12 11 9 6 5 7 8 8 8 9 9 8 8 9 9 9 8 7 7 7 7 8 9 9 9 9 8 8 8 8 8 8 8 8 7 7 8 9 8 8 7 8 8 8 8 8 8 7 6 5 4 5 6 6
14 14 13 11 12 12 11 12 12 12 14 15 14 11 9 8 8 11 14 16 15 14 11 10 9 8 9 11 11 11 11 11 9 7 5 5 7 8 7 8 9 10 10 10 10 9 9 8 8 8 7 7 8 8 9 9 9 8 9 9 9 9 8 9 9 9 9 10 10 9 9 9 10 10 11 11 10 9 7 5 4 2 1 2 5
15 15 13 12 12 11 11 12 12 13 14 14 13 12 11 12 13 14 14 14 13 11 10 8 8 9 9 9 10 10 11 11 8 6 5 6 7 7 7 9 11 10 10 10 9 9 8 8 7 7 7 7 8 9 9 9 8 9 9 9 9 9 9 9 10 11 11 12 12 11 11 12 13 12 12 12 10 9 7 5 5 3 3 4 3
14 14 13 12 12 13 13 13 14 14 13 14 14 14 14 14 14 13 13 14 13 10 8 8 9 8 8 9 11 11 12 12 9 5 3 6 8 8 8 10 11 11 10 9 9 9 8 8 7 7 7 7 8 9 9 9 9 9 8 8 10 10 9 10 10 11 12 12 12 13 13 13 12 10 10 10 9 9 8 6 6 5 5 6 5
13 14 14 14 14 14 14 14 16 17 16 15 15 16 15 12 11 11 12 13 15 13 13 13 12 10 9 10 12 12 12 13 11 7 5 7 10 10 10 11 11 11 11 10 9 9 9 8 8 8 7 8 9 10 10 10 10 10 10 11 11 10 10 10 11 11 11 10 9 10 12 11 9 7 7 7 7 7 7 6 5 5 5 5 4
13 13 13 13 13 13 13 13 16 19 17 15 14 13 12 11 10 10 11 11 12 13 13 13 11 9 8 9 12 13 12 12 12 9 8 9 11 11 12 12 12 11 10 10 10 10 10 9 9 9 9 9 9 10 11 11 12 13 14 14 12 10 11 12 12 10 9 9 8 8 9 9 8 8 6 5 5 4 4 5 5 4 4 4 3
13 13 13 13 12 12 12 12 13 14 14 11 9 7 8 8 8 8 8 8 8 9 8 7 7 7 8 9 11 12 13 12 11 10 10 10 12 13 13 13 13 12 11 10 10 11 11 10 10 10 9 9 10 11 11 12 14 15 16 16 13 11 13 14 12 9 8 9 9 7 7 8 9 9 6 5 5 3 2 4 4 3 4 3 3
13 13 13 13 13 12 12 12 12 13 14 12 10 9 8 7 7 9 10 9 9 10 10 9 8 8 9 9 9 10 12 12 11 11 11 11 12 13 13 13 13 13 12 11 11 11 11 11 11 10 10 10 10 11 12 12 13 14 15 16 14 13 14 12 10 9 8 8 8 7 7 8 9 9 7 5 5 4 2 3 3 3 3 3 3
13 12 11 11 12 12 11 11 12 13 14 13 11 11 12 11 11 13 13 11 10 11 11 9 9 10 10 10 9 10 11 11 11 11 11 11 12 13 13 13 13 13 13 12 12 12 11 12 12 11 12 11 11 11 12 12 12 12 12 13 13 13 13 11 10 10 9 9 8 7 7 8 8 8 7 5 6 6 4 3 2 2 3 3 2
13 13 12 11 11 10 11 12 12 12 13 12 12 12 13 13 13 13 13 11 10 12 12 10 9 9 10 10 9 9 10 11 12 11 10 10 11 13 14 13 13 13 13 14 14 13 12 12 12 12 13 12 12 12 12 12 13 13 12 12 11 11 12 11 10 11 10 10 10 8 8 9 9 9 8 8 8 9 7 5 5 4 3 2 2
13 13 13 13 13 11 11 12 12 12 12 12 12 12 12 13 13 12 11 10 10 12 12 11 9 8 8 8 8 8 9 10 11 11 11 11 12 13 14 14 14 13 13 14 14 13 13 13 13 13 14 14 14 14 13 13 13 13 13 13 12 12 11 10 10 10 9 10 11 10 10 10 10 10 11 11 10 10 10 9 9 8 4 3 4
13 13 14 14 14 13 13 12 12 12 12 11 11 12 12 12 11 10 9 10 10 10 10 9 9 8 8 8 7 8 8 8 9 10 10 11 11 13 14 14 14 14 14 14 14 14 14 14 14 14 14 15 15 15 15 15 14 14 14 14 13 13 12 12 12 10 10 10 11 11 11 10 11 12 12 12 10 11 11 10 9 7 6 5 5
14 14 14 14 14 14 13 13 13 12 11 11 10 10 10 10 9 9 9 10 10 10 9 8 8 7 7 6 6 6 7 7 8 9 10 11 12 13 14 14 14 14 14 14 14 14 15 15 15 15 16 16 16 16 17 17 17 16 16 15 14 14 13 13 13 12 11 11 11 12 12 12 13 13 13 13 13 12 11 10 8 8 9 9 7
15 14 15 15 15 15 14 14 13 12 11 11 11 10 10 9 9 9 8 8 9 9 9 8 7 6 6 5 4 5 5 6 7 8 9 11 12 12 13 14 15 15 14 14 14 15 16 16 17 17 18 19 18 18 19 19 19 18 18 17 16 17 16 15 14 14 14 15 15 14 13 14 15 13 11 12 13 13 13 13 13 13 13 12 10
16 16 16 17 16 16 16 15 14 13 12 12 11 10 10 10 9 8 8 8 8 9 9 8 7 5 5 4 3 3 4 5 6 6 7 9 10 11 12 13 15 16 17 17 16 16 17 17 18 19 19 21 21 21 21 21 21 20 19 19 19 19 19 18 18 17 17 18 19 17 14 14 15 15 14 14 14 14 14 15 16 16 15 13 13
17 17 17 17 17 16 16 15 15 14 13 13 12 11 11 11 10 9 8 8 8 9 9 8 7 6 5 3 2 1 1 3 4 5 6 7 8 10 11 13 15 16 18 19 19 19 18 19 20 20 20 23 24 23 22 21 21 20 19 20 20 20 21 21 20 19 18 17 17 16 14 13 14 17 18 17 17 17 16 16 17 17 17 16 16
17 17 17 17 16 16 16 16 15 15 14 13 12 12 11 10 9 8 7 8 8 9 9 9 8 7 5 4 3 2 1 2 3 4 5 6 8 9 10 12 14 15 17 19 21 21 21 21 22 21 21 23 24 23 22 22 22 21 20 20 20 21 22 22 21 20 18 16 15 14 13 12 13 17 17 14 16 18 17 16 16 16 17 18 18
17 17 17 16 16 15 15 15 15 14 12 11 12 13 11 9 8 8 7 7 7 8 8 8 7 7 6 5 3 2 2 2 3 4 6 7 8 10 11 13 14 15 17 19 21 22 21 21 22 23 24 23 22 21 22 23 24 24 24 23 23 23 23 23 23 22 20 19 18 16 14 12 12 15 14 12 14 15 14 14 14 14 16 17 17
17 16 16 16 15 14 13 13 14 13 10 9 10 12 12 10 9 8 7 7 6 6 6 7 6 6 5 4 4 3 2 2 3 4 5 7 8 10 12 14 14 16 18 18 20 21 22 23 25 27 28 27 24 23 24 26 26 27 27 27 25 24 25 24 22 21 20 20 20 17 14 11 12 15 14 13 13 13 11 11 12 13 15 16 17
15 15 15 14 13 13 12 12 12 12 10 8 7 9 10 10 9 9 8 7 6 6 6 6 6 6 5 5 4 4 3 3 3 4 5 6 7 10 12 13 14 16 17 19 19 21 23 25 26 27 28 29 28 28 28 28 28 28 29 29 26 26 27 26 22 21 21 20 18 14 12 10 12 15 14 13 13 12 11 11 12 13 15 17 17
13 13 13 13 12 12 12 12 12 12 11 11 10 9 9 9 9 9 9 7 5 5 6 6 6 6 5 5 5 5 5 4 5 5 6 6 7 8 9 11 12 14 16 17 18 20 22 22 22 24 25 25 25 26 27 27 27 27 28 28 25 24 26 26 23 21 21 20 18 15 11 11 15 17 14 12 12 11 11 12 12 13 15 16 15
11 11 12 12 12 12 11 11 13 13 13 12 12 11 10 9 8 8 7 7 5 5 6 7 7 7 7 7 7 6 6 6 6 7 7 8 8 9 9 10 11 13 14 15 16 18 20 22 22 23 23 22 20 21 23 25 26 27 27 24 22 21 22 24 23 20 19 20 18 15 15 16 18 18 14 12 12 11 10 11 11 12 13 13 13
8 8 8 8 8 8 7 8 10 10 12 11 10 9 8 7 7 8 8 8 7 7 8 9 9 9 9 9 9 9 8 8 8 8 8 9 10 10 11 12 12 13 13 14 15 17 18 21 22 21 22 23 22 22 22 22 23 24 23 20 19 18 18 20 20 18 17 17 16 17 19 19 17 15 13 12 12 12 11 11 11 10 9 8 12
6 6 7 6 6 5 4 5 6 7 10 10 9 9 9 9 10 10 10 9 9 10 12 13 13 12 13 12 11 11 11 10 10 10 10 10 11 12 12 13 14 14 14 15 15 16 17 18 19 19 21 22 23 22 21 21 21 20 18 18 18 18 17 15 15 15 15 16 16 18 19 17 14 13 13 12 13 14 14 13 12 11 10 10 14
5 7 7 6 5 4 3 5 6 8 10 11 11 12 12 12 12 12 11 11 12 13 14 17 18 18 16 14 13 13 13 14 15 15 14 14 13 13 14 14 15 16 16 16 16 16 16 16 17 18 19 19 21 20 19 21 21 18 17 17 17 16 14 13 15 15 14 15 17 17 17 15 14 13 13 13 14 15 15 14 13 13 14 15 16
5 5 5 5 4 3 4 5 6 8 9 10 12 13 12 13 12 12 12 14 16 16 17 19 20 19 18 18 20 20 20 21 22 21 20 18 17 16 15 15 16 17 17 17 17 17 17 17 18 19 19 18 19 18 17 19 19 20 20 19 16 14 14 16 17 16 14 14 16 16 15 15 14 14 14 14 14 15 15 14 12 12 15 18 17
4 3 5 7 6 4 7 8 8 9 11 12 13 14 14 14 13 14 16 17 18 19 20 19 19 19 20 22 24 24 24 24 24 23 23 22 21 19 18 17 18 19 19 19 18 18 18 19 18 19 19 18 18 17 18 19 20 22 23 21 17 16 18 17 15 15 15 14 15 15 15 15 14 13 13 13 13 14 14 13 13 14 15 17 17
4 3 6 9 7 6 8 8 7 9 11 12 12 12 13 14 13 15 17 18 18 18 19 19 20 21 21 21 22 22 23 23 22 22 22 23 22 21 21 21 21 20 21 21 20 19 20 21 20 20 20 18 18 19 22 23 22 23 22 22 20 20 20 18 14 15 16 15 13 13 14 14 13 12 12 12 12 12 13 13 14 14 14 14 12
4 5 7 8 7 6 7 6 6 8 9 9 9 9 11 12 12 13 15 15 16 16 17 18 20 20 21 21 20 21 21 21 21 21 22 23 23 23 23 24 23 23 23 24 23 22 22 24 24 23 21 19 19 22 25 25 24 23 22 23 24 22 21 20 18 17 17 14 11 12 13 12 12 12 12 12 12 12 12 12 12 12 12 11 9
5 6 8 8 7 6 6 5 6 7 8 8 8 9 10 11 12 13 14 14 15 16 17 18 18 19 20 20 20 21 20 20 21 22 23 24 24 24 24 25 25 26 26 26 26 25 25 24 24 22 20 18 17 21 24 25 25 25 24 24 25 22 21 22 21 19 16 11 10 13 13 12 12 13 12 12 12 12 11 11 11 11 9 7 5
6 7 8 7 6 5 6 6 7 8 8 9 9 10 11 13 13 14 15 15 16 17 17 18 18 18 19 19 19 20 21 21 21 22 23 24 25 25 26 26 26 27 28 29 30 29 27 26 25 23 20 17 16 20 24 26 26 26 25 25 25 23 23 24 23 19 15 13 13 13 12 12 12 12 11 11 11 11 11 11 10 8 7 6 7
7 7 7 6 5 5 6 7 8 9 9 10 11 12 12 14 15 16 16 17 17 17 18 18 18 19 19 19 19 19 20 21 22 22 22 23 24 24 26 27 27 27 29 31 32 31 29 25 24 24 22 19 18 20 25 28 28 27 27 26 25 24 24 25 24 20 17 15 14 12 12 13 12 11 12 11 11 11 10 8 6 5 6 7 8
8 8 7 6 5 6 8 8 9 9 10 11 12 13 14 15 16 17 17 18 18 18 18 18 18 18 18 18 19 19 19 21 22 23 23 24 24 25 25 25 24 25 28 31 31 31 29 24 21 21 22 21 20 19 23 27 26 24 23 23 23 24 25 25 23 21 17 15 14 13 14 14 13 13 12 10 9 9 7 6 7 7 6 5 5
8 8 7 6 6 8 8 8 9 10 11 12 13 14 15 16 17 17 17 17 17 17 17 17 17 17 17 17 18 19 19 20 21 22 23 23 24 26 28 28 27 26 27 30 31 29 27 27 27 26 25 25 25 23 24 24 22 19 18 18 18 20 21 19 19 18 16 14 14 14 14 13 13 13 11 9 9 9 7 7 8 6 6 7 6
9 8 6 6 7 8 8 9 10 11 12 13 15 16 17 17 17 17 16 15 15 15 15 16 16 16 16 17 18 18 19 19 19 20 21 23 24 24 26 30 31 29 28 28 28 26 25 28 32 32 29 27 27 26 25 25 21 19 18 16 16 17 16 14 14 16 16 15 15 15 15 15 13 12 10 11 10 9 8 8 7 4 5 6 5
Wind_Direction
176 185 189 189 189 187 187 189 184 180 178 174 180 183 175 174 178 180 180 181 184 184 186 182 169 160 148 136 127 125 124 120 119 125 131 138 132 115 108 96 76 62 25 360 340 250 219 204 191 183 166 169 180 184 192 205 215 218 219 225 220 214 216 213 209 201 187 192 194 169 172 208 137 146 192 198 180 217 224 218 203 182 216 229 216
176 184 187 189 190 191 188 187 181 173 174 177 181 181 174 178 184 183 181 180 185 187 182 174 165 159 147 136 134 128 121 121 123 125 129 136 133 126 117 109 105 92 74 37 18 346 288 189 172 181 167 169 184 191 201 213 214 211 217 230 224 213 214 212 209 205 196 196 192 176 167 181 138 126 145 151 131 164 200 208 110 104 174 252 107
180 185 188 191 191 192 188 183 182 175 177 183 183 179 177 185 190 186 182 179 183 183 176 171 162 153 147 137 131 127 126 130 126 115 108 118 131 125 121 123 111 86 75 59 43 17 353 4 226 178 160 171 187 190 201 213 211 210 217 223 216 213 230 229 216 207 207 199 183 179 172 167 156 151 161 166 166 157 142 160 128 111 117 84 91
181 186 190 192 192 194 189 182 182 178 181 187 187 182 180 189 193 186 185 183 183 179 173 174 162 150 147 140 136 136 133 128 119 112 106 110 117 117 123 121 102 98 99 65 32 288 330 42 20 293 180 166 178 186 196 207 211 218 222 219 211 213 225 230 225 211 205 192 172 180 179 162 173 193 175 164 170 152 139 158 146 110 109 101 96
184 190 192 193 194 194 189 183 182 181 185 188 189 185 180 185 190 187 185 180 178 174 172 174 161 149 149 145 143 138 125 117 114 114 111 108 111 117 124 117 103 108 100 78 42 310 301 280 267 280 307 109 137 194 199 206 213 225 230 223 212 212 212 215 226 212 201 196 178 169 173 174 188 183 160 152 157 143 144 149 115 95 89 82 85
189 193 194 194 193 192 192 187 182 186 190 190 193 191 184 184 182 179 181 178 175 175 173 170 158 148 147 143 140 132 121 121 125 122 118 119 122 123 125 126 128 122 101 85 113 117 29 332 313 282 300 237 169 154 180 204 216 235 245 240 223 216 210 205 221 216 203 203 202 187 181 178 176 167 151 148 143 119 113 112 98 96 92 83 82
196 197 198 196 193 192 195 194 188 188 188 186 189 189 187 187 176 170 175 176 175 177 175 165 155 147 144 140 135 129 126 129 132 128 128 133 131 128 130 129 127 125 117 93 68 78 90 67 67 94 59 308 279 180 191 197 194 209 228 238 239 228 215 207 211 218 204 199 206 201 195 186 168 167 165 154 137 117 109 109 109 114 104 92 90
199 204 201 197 195 193 195 198 194 191 184 180 184 184 186 186 174 171 177 177 178 181 177 159 150 146 140 137 130 129 132 133 133 132 134 135 127 122 123 122 122 118 115 109 87 45 52 83 85 90 95 77 26 238 200 194 191 202 225 237 243 236 222 214 208 218 213 203 210 202 195 196 178 176 179 161 143 133 127 124 130 131 114 98 92
204 210 204 198 198 193 195 199 195 192 182 172 174 178 177 169 168 177 182 181 184 182 172 154 148 145 136 135 133 132 134 130 130 132 132 130 124 127 128 128 141 136 132 134 99 63 63 77 90 111 115 107 98 177 151 156 201 226 251 246 243 239 224 215 210 217 217 208 213 198 188 191 187 186 185 170 156 145 140 144 145 133 113 97 88
208 212 210 203 199 193 193 193 190 192 181 164 153 160 161 144 151 168 177 182 187 178 164 153 151 144 137 141 137 133 133 129 133 135 131 129 126 133 136 129 131 131 142 140 108 110 126 107 135 136 117 115 112 113 116 127 183 250 287 261 236 233 222 221 214 211 212 202 187 178 179 178 182 186 174 168 168 156 148 156 153 132 113 101 92
203 205 213 208 196 187 184 185 188 194 192 188 190 177 178 174 156 165 180 192 191 170 157 152 150 145 143 145 138 136 138 137 141 139 134 137 133 131 135 132 133 136 143 143 133 152 157 152 153 123 93 100 99 85 84 92 143 156 300 282 251 224 222 225 208 195 196 195 188 183 182 175 179 185 169 163 160 147 144 150 147 133 120 114 106
195 196 211 210 189 176 181 188 186 185 192 195 191 175 167 165 154 163 181 191 186 168 158 151 149 152 154 149 143 143 142 141 145 143 140 144 141 137 142 144 149 146 132 146 164 154 140 145 138 120 110 105 99 90 84 76 82 124 128 293 262 218 217 217 194 178 157 170 207 187 154 133 151 164 148 149 137 130 136 139 137 132 122 118 117
187 195 208 204 179 174 189 183 164 169 183 181 169 157 151 149 151 164 174 176 175 173 174 166 153 156 157 150 149 148 143 142 144 144 145 147 146 147 148 147 149 146 136 157 182 152 129 131 128 127 125 127 129 118 102 85 70 89 114 107 135 164 182 180 156 141 135 130 103 127 112 69 34 65 99 99 106 121 132 134 131 129 125 125 126
187 196 196 184 172 181 190 168 149 160 171 166 158 158 164 166 164 168 170 171 172 171 175 171 154 159 167 162 160 154 147 146 145 148 150 150 151 149 150 154 154 147 147 161 168 151 140 136 133 124 109 131 169 167 144 112 85 82 100 98 97 99 123 146 129 105 113 105 83 93 97 75 65 77 87 91 111 126 135 138 131 126 128 136 136
194 193 179 166 173 179 175 158 149 153 157 161 163 166 174 174 165 155 157 162 163 159 165 160 148 166 190 188 177 165 156 152 151 153 153 151 154 152 154 160 152 149 166 184 178 165 156 143 135 138 136 165 188 171 152 129 100 89 101 102 99 98 104 113 113 108 106 102 90 87 87 84 81 82 87 98 117 128 138 139 129 129 135 134 131
181 165 147 152 166 169 165 158 153 148 153 160 161 164 171 168 161 148 144 145 142 143 153 155 146 163 190 191 182 172 163 155 156 160 156 155 158 158 159 156 152 161 181 187 170 158 157 154 156 161 158 167 161 135 132 131 112 102 112 109 100 95 98 99 102 113 119 116 105 95 96 98 96 98 100 105 107 112 131 134 125 134 136 126 125
157 142 137 142 151 157 163 162 154 144 148 154 151 155 163 163 172 162 146 141 139 145 159 164 157 171 195 195 188 179 166 159 164 165 151 147 157 162 167 163 164 178 183 170 155 151 152 153 156 155 146 143 137 127 133 134 118 112 121 124 126 125 124 121 115 115 119 117 106 97 97 97 97 99 101 106 103 103 119 124 123 143 136 133 154
141 135 131 129 130 136 146 152 150 143 145 150 148 148 151 155 161 155 146 142 141 148 158 163 170 186 201 205 200 189 177 173 177 168 140 144 164 172 176 172 172 179 176 164 156 154 152 151 152 151 146 141 134 132 136 131 123 132 138 142 150 146 140 140 136 128 121 116 111 105 105 110 111 110 106 104 98 96 107 107 108 136 82 120 167
123 120 118 115 115 119 123 128 131 133 137 139 134 132 138 147 151 146 142 142 144 152 163 178 202 204 206 220 217 204 201 200 194 175 149 156 175 185 177 170 171 173 172 167 160 156 155 155 155 155 155 155 151 147 140 131 133 143 144 148 153 149 148 149 146 143 136 131 127 119 118 123 121 116 110 101 93 92 97 95 96 100 54 57 110
116 116 116 116 120 127 125 120 119 120 124 129 132 135 141 148 151 147 145 149 150 155 176 210 234 226 221 238 231 216 216 217 208 198 184 176 184 187 174 167 166 167 170 168 161 159 158 157 155 154 155 156 156 156 152 142 136 131 129 141 146 141 141 141 138 138 135 132 128 122 123 121 114 113 111 106 109 107 101 97 95 94 84 74 78
110 113 118 118 121 125 122 121 122 116 108 113 128 137 137 134 136 146 158 166 165 166 185 210 228 230 225 232 228 216 214 216 216 216 199 186 187 184 174 165 161 166 170 165 163 163 161 160 157 153 152 152 155 157 154 144 136 134 134 134 131 125 126 132 132 130 126 122 118 123 127 118 106 112 113 107 115 111 102 101 95 91 95 88 88
105 112 122 122 122 122 119 127 134 129 121 117 121 128 122 108 109 132 153 166 171 178 193 207 217 222 221 218 210 205 205 210 216 208 186 186 189 185 179 169 161 168 171 165 167 168 163 163 161 158 157 152 151 151 148 147 148 149 144 134 127 129 138 139 133 129 131 129 124 130 134 130 127 127 118 116 124 116 112 114 98 93 97 88 92
105 109 115 121 125 121 114 117 130 143 153 149 137 132 121 105 100 119 140 145 145 157 172 188 196 202 209 205 197 197 202 206 208 199 190 195 193 188 188 179 168 170 171 170 174 170 167 168 165 164 162 155 155 155 152 155 157 155 150 143 138 145 151 147 138 138 148 147 144 149 160 162 155 142 132 140 142 125 114 120 104 92 100 99 105
106 108 111 117 120 115 112 114 120 132 143 141 134 135 129 119 127 146 156 155 151 154 161 174 188 195 198 196 191 192 198 201 202 201 202 202 197 196 196 187 178 175 172 175 180 173 171 174 171 170 169 163 165 164 158 157 157 157 159 159 156 157 156 150 145 150 159 164 161 163 176 177 166 156 153 157 156 144 125 126 120 103 109 113 110
103 103 106 112 112 111 113 117 118 120 123 126 127 127 123 126 140 151 150 148 154 158 162 172 185 192 190 187 185 187 193 199 200 205 210 204 199 201 200 193 189 185 179 179 180 178 179 180 178 178 178 174 173 170 165 165 164 161 164 167 165 166 164 159 162 167 169 173 171 170 183 183 177 172 165 160 166 165 158 161 175 162 139 127 108
98 99 103 103 102 108 112 112 112 109 110 119 126 125 125 128 135 141 140 141 147 151 156 165 174 181 180 177 182 186 189 197 200 205 215 212 204 202 200 198 195 193 192 188 182 181 186 188 186 185 185 185 184 180 175 175 175 172 171 172 173 177 177 175 182 184 181 183 181 179 189 192 187 179 174 179 185 178 170 181 206 204 166 152 182
97 99 102 100 95 98 105 106 108 106 104 109 115 115 116 118 120 126 132 135 137 143 151 157 158 164 167 168 179 186 188 197 204 207 216 219 210 201 199 200 200 198 199 197 191 189 190 193 193 193 192 191 191 190 187 185 185 184 184 184 184 187 186 187 193 193 194 202 199 194 200 205 200 193 196 204 206 204 202 195 194 193 187 210 224
98 96 96 98 95 94 99 104 106 107 105 102 100 101 105 108 109 114 123 127 128 132 138 143 144 148 156 162 175 184 188 198 206 209 214 216 211 203 199 200 202 202 202 201 200 198 197 197 198 199 196 193 193 191 191 192 191 193 199 202 204 204 199 201 204 197 200 211 210 208 212 214 211 211 218 225 225 226 222 204 194 196 200 212 220
100 98 96 93 91 91 95 98 98 99 101 99 98 99 102 105 107 109 115 119 121 122 124 127 131 134 143 155 172 188 194 199 206 210 212 211 208 205 203 203 205 207 207 207 206 206 207 205 203 203 200 198 196 193 195 196 193 198 209 214 219 218 208 207 212 208 210 217 217 219 221 219 222 228 232 238 241 236 221 202 201 213 214 217 225
100 99 98 93 90 90 88 85 87 91 93 94 96 99 100 102 106 108 111 114 116 117 117 115 116 122 128 135 156 185 193 198 203 205 209 212 210 208 208 209 211 214 214 214 213 213 214 212 211 209 205 203 200 197 202 205 203 209 218 219 220 222 214 210 212 213 220 225 224 225 225 222 227 238 244 246 248 240 223 208 208 220 230 236 239
102 97 94 91 89 87 85 83 83 84 86 85 85 86 85 85 90 95 98 104 109 111 110 108 107 107 110 116 131 160 173 192 205 203 206 212 210 212 217 219 220 220 219 218 218 218 219 219 218 214 211 211 212 212 216 219 218 221 224 223 225 227 222 218 217 218 225 231 232 231 230 228 233 244 251 251 250 243 231 221 222 236 249 253 249
94 90 85 83 80 76 74 75 73 71 71 69 68 68 67 68 69 73 80 85 92 96 96 97 97 91 91 91 75 83 160 199 206 202 208 216 215 217 223 227 228 226 222 220 219 218 218 219 219 217 215 219 224 228 231 231 230 229 228 230 231 229 226 225 225 227 229 234 241 243 242 246 251 249 247 247 247 244 241 237 239 250 258 257 254
80 75 71 68 65 61 57 55 53 53 53 51 53 55 52 54 56 58 67 75 80 84 84 84 84 80 75 69 56 42 331 274 242 227 228 231 229 228 232 235 235 232 228 224 224 223 219 218 220 220 222 226 231 234 235 236 238 237 237 236 233 230 230 229 227 230 232 235 245 253 253 256 254 245 242 245 244 240 241 244 247 252 256 255 254
71 66 64 62 61 59 57 55 54 55 55 57 63 60 49 43 47 48 50 59 67 73 73 71 69 65 59 53 46 35 7 323 291 276 264 254 248 243 243 243 243 243 240 236 236 236 230 225 227 229 229 231 233 235 238 241 241 242 242 240 234 232 234 233 233 238 242 245 256 267 263 250 241 240 239 239 239 236 236 242 246 247 249 251 251
66 63 63 62 60 60 62 65 63 60 63 75 85 75 53 35 33 36 35 43 53 58 59 57 53 47 39 29 16 2 352 330 306 292 279 272 267 258 255 253 251 251 251 248 247 246 243 239 237 237 238 240 241 241 243 244 242 241 242 241 236 235 238 239 240 244 248 253 260 264 255 237 232 240 234 222 227 235 235 238 240 240 244 245 243
65 65 66 63 55 49 47 49 47 40 38 43 60 64 48 30 27 29 24 27 40 48 50 49 42 35 24 11 358 341 328 318 299 287 280 277 272 269 266 263 258 256 257 257 256 255 254 251 245 243 245 248 249 246 245 245 244 243 244 244 239 237 240 242 242 245 250 251 245 236 229 220 221 231 227 215 222 233 235 238 239 236 238 240 239
61 59 61 58 49 39 30 25 22 16 14 13 10 17 24 22 23 20 12 13 28 37 38 35 26 17 8 357 347 335 323 310 295 287 281 274 270 270 269 262 257 256 258 260 261 260 259 257 252 248 248 250 248 244 241 243 244 242 242 243 239 237 241 243 244 246 247 240 223 206 204 208 214 225 228 220 221 227 229 234 232 224 229 236 237
53 43 41 40 36 33 20 7 2 356 354 357 354 353 359 0 359 353 345 350 360 5 9 5 353 346 343 337 333 329 320 310 300 290 282 275 269 267 266 262 256 254 255 257 259 258 257 258 255 249 247 247 244 238 238 240 242 240 237 236 234 234 237 239 239 238 233 226 212 196 198 209 216 222 223 214 212 210 206 209 205 202 217 234 239
67 51 46 37 28 31 20 358 349 341 337 340 343 344 343 339 333 328 331 339 340 333 330 327 324 323 320 317 317 314 308 303 296 288 282 278 272 268 266 263 258 256 256 255 255 255 256 259 259 253 250 247 241 238 241 242 240 236 230 224 223 225 227 230 228 221 214 213 206 199 207 217 217 214 211 208 207 198 185 186 191 194 205 231 249
59 39 43 39 19 17 11 349 336 327 325 328 330 329 327 324 321 323 329 330 323 315 310 305 302 299 299 302 303 299 296 292 287 283 281 279 275 271 267 263 259 257 256 255 255 252 252 256 257 256 254 248 239 236 240 238 233 227 218 212 212 217 220 218 209 199 201 210 208 202 207 211 210 209 208 207 204 193 180 180 189 198 207 221 236
29 14 24 28 8 348 336 328 320 319 322 323 322 322 322 320 316 316 317 311 304 302 299 294 292 292 292 290 285 281 280 278 275 275 275 274 273 271 267 262 259 256 255 255 252 248 249 249 247 250 252 246 237 234 233 231 227 218 206 200 202 210 210 197 186 183 185 197 202 200 201 204 206 208 207 205 204 196 192 198 202 205 213 221 230
25 15 1 355 355 326 309 317 315 315 321 320 320 322 320 317 315 311 303 297 294 293 292 292 293 291 287 280 276 275 274 272 271 271 271 270 269 268 266 262 258 254 253 252 249 246 247 243 239 244 247 241 235 231 226 223 214 200 192 187 188 198 193 180 181 178 170 184 200 202 204 207 207 208 207 205 205 205 210 223 227 222 224 230 238
22 16 327 334 349 326 315 326 326 322 324 323 325 327 323 319 315 306 299 296 294 292 290 287 285 282 279 277 277 277 275 274 272 270 268 267 266 264 263 259 256 252 250 251 248 244 241 237 236 241 240 234 232 225 213 204 196 188 186 186 187 191 184 177 179 174 170 188 204 202 204 208 206 208 210 206 210 215 221 230 235 236 239 241 246
7 348 324 337 346 328 325 335 333 327 328 330 333 334 330 328 324 316 314 313 308 301 295 287 282 279 278 278 279 278 276 274 271 268 267 266 263 261 258 255 254 251 249 247 245 240 237 234 232 231 227 224 224 215 201 193 190 191 193 193 192 193 187 180 174 173 183 201 205 197 203 209 206 208 213 214 219 224 228 236 242 244 247 249 253
357 338 330 339 341 328 330 337 331 330 334 337 341 339 334 333 331 326 326 325 319 314 308 300 295 289 283 279 277 277 276 273 269 265 262 260 259 258 256 253 251 250 248 247 244 240 239 237 234 231 225 219 215 208 199 194 194 198 200 197 195 198 195 183 173 181 199 210 204 198 204 207 205 209 215 219 224 229 235 243 246 246 248 254 259
353 337 335 342 340 331 334 336 334 339 340 337 337 335 330 328 326 324 321 317 314 312 308 305 304 301 295 289 283 278 276 273 271 266 262 258 256 255 254 252 249 248 248 248 245 241 238 237 236 232 224 216 210 204 200 197 196 199 201 199 198 201 199 187 183 195 209 208 198 201 205 204 206 212 217 222 228 236 242 244 245 249 254 255 252
347 337 336 342 341 333 337 340 339 341 338 332 328 325 323 321 319 317 313 309 306 303 301 300 299 299 299 297 292 286 280 273 269 267 265 261 257 253 252 250 248 247 245 245 245 244 240 238 236 230 219 207 201 205 205 201 198 199 201 200 201 203 201 196 197 205 211 207 202 203 205 207 211 216 220 224 229 236 242 246 251 253 244 232 237
340 334 335 340 341 338 338 338 335 332 329 327 325 322 320 319 316 314 311 307 304 300 297 296 295 293 293 292 290 291 287 280 274 270 267 263 259 256 253 250 248 248 246 245 245 244 240 237 230 223 216 205 198 205 208 204 200 200 200 200 201 202 202 203 207 212 213 210 206 205 205 207 211 214 217 223 231 235 238 240 236 228 234 249 262
335 332 336 342 343 339 335 332 332 330 327 326 325 322 321 318 315 313 310 306 302 298 296 294 292 290 290 289 288 288 286 283 280 276 271 265 260 256 255 253 252 250 247 245 243 239 236 235 226 215 208 199 191 194 202 202 198 196 197 198 199 201 203 206 211 216 217 211 206 206 208 208 209 212 215 218 221 220 216 215 215 212 222 249 266
334 337 345 343 332 331 334 334 334 332 328 327 325 321 320 318 314 312 309 305 302 300 297 295 294 291 290 289 289 288 285 281 279 277 275 271 265 258 254 252 251 250 247 244 244 244 241 238 234 225 210 194 188 191 196 196 193 194 198 200 203 204 205 208 213 218 219 216 212 211 210 210 210 210 206 195 194 197 197 211 228 223 204 218 237
334 337 339 331 325 331 336 335 334 331 328 326 323 321 319 318 314 311 309 306 304 302 299 298 296 292 290 288 286 287 286 283 281 279 277 275 272 267 261 255 250 249 247 244 244 246 241 234 234 232 219 201 197 202 202 196 194 197 201 203 206 207 206 207 213 215 215 216 218 215 212 209 205 200 192 186 190 195 193 199 218 224 208 225 251